Klawock, AK

9:48 PM AKDT on May 22, 2018 (GMT -0800)
Klawock

Weather History for PAKW - May, 2013

Change the Weather History Date:

Sunday, May 5, 2013

  Actual Average Record
Temperature  
Mean Temperature 50 °F -  
Max Temperature 57 °F 51 °F 66 °F (2015)
Min Temperature 43 °F 35 °F 28 °F (2003)
Degree Days  
Heating Degree Days 14    
Moisture  
Dew Point 44 °F    
Average Humidity 85    
Maximum Humidity 93    
Minimum Humidity 69    
Precipitation  
Precipitation 0.00 in - - ()
Sea Level Pressure  
Sea Level Pressure 30.14 in    
Wind  
Wind Speed 2 mph (SSW)    
Max Wind Speed 9 mph    
Max Gust Speed -    
Visibility 10 miles    
Events      
Averages and records for this station are not official NWS values.
T = Trace of Precipitation, MM = Missing Value Source: NWS Daily Summary

Daily Weather History Graph

Daily Weather History Graph

Search for Another Location

Airport or City:

Astronomy

May. 05, 2013 Rise Set
Actual Time 5:00 AM AKDT 8:38 PM AKDT
Civil Twilight 4:15 AM AKDT 9:24 PM AKDT
Nautical Twilight 3:11 AM AKDT 10:28 PM AKDT
Astronomical Twilight 1:04 AM AKDT 12:16 AM AKDT
Moon 3:18 AM AKDT (5/5) 4:06 PM AKDT (5/5)
Length of Visible Light 17h 09m
Length of Day
15h 38m
Waning Crescent, 17% of the Moon is Illuminated
May 5
Waning Crescent
May 9
New
May 17
First Quarter
May 24
Full
May 31
Last Quarter

Hourly Weather History & Observations

Time (AKDT) Temp. Windchill Dew Point Humidity Pressure Visibility Wind Dir Wind Speed Gust Speed Precip Events Conditions
12:53 AM 46.0 °F - 43.0 °F 89% 30.32 in 10.0 mi Calm Calm - N/A   Overcast
1:53 AM 46.0 °F - 43.0 °F 89% 30.30 in 10.0 mi Calm Calm - N/A   Overcast
2:22 AM 44.6 °F - 42.8 °F 93% 30.29 in 10.0 mi Calm Calm - N/A   Overcast
2:53 AM 46.0 °F - 42.1 °F 86% 30.28 in 10.0 mi Calm Calm - N/A   Overcast
3:53 AM 45.0 °F - 43.0 °F 93% 30.27 in 10.0 mi Calm Calm - N/A   Overcast
4:53 AM 45.0 °F - 42.1 °F 90% 30.26 in 10.0 mi Calm Calm - N/A   Overcast
5:53 AM 45.0 °F - 43.0 °F 93% 30.25 in 10.0 mi Calm Calm - N/A   Overcast
6:53 AM 46.0 °F - 42.1 °F 86% 30.24 in 10.0 mi Calm Calm - N/A   Overcast
7:19 AM 46.4 °F - 42.8 °F 87% 30.23 in 10.0 mi Calm Calm - N/A   Overcast
7:53 AM 46.0 °F - 42.1 °F 86% 30.22 in 10.0 mi Calm Calm - N/A   Overcast
8:53 AM 46.9 °F - 43.0 °F 86% 30.21 in 10.0 mi Calm Calm - N/A   Overcast
9:51 AM 51.8 °F - 44.6 °F 76% 30.18 in 10.0 mi Calm Calm - N/A   Overcast
9:53 AM 51.1 °F - 45.0 °F 80% 30.19 in 10.0 mi Calm Calm - N/A   Overcast
10:53 AM 53.1 °F - 46.0 °F 77% 30.17 in 10.0 mi WSW 5.8 mph - N/A   Mostly Cloudy
11:03 AM 53.6 °F - 46.4 °F 77% 30.16 in 10.0 mi SW 5.8 mph - N/A   Scattered Clouds
11:53 AM 55.0 °F - 46.0 °F 72% 30.15 in 10.0 mi WSW 8.1 mph - N/A   Clear
12:53 PM 57.0 °F - 46.9 °F 69% 30.13 in 10.0 mi WSW 6.9 mph - N/A   Clear
1:53 PM 55.9 °F - 46.9 °F 72% 30.12 in 10.0 mi SW 9.2 mph - N/A   Clear
2:53 PM 55.0 °F - 46.0 °F 72% 30.10 in 10.0 mi Variable 5.8 mph - N/A   Clear
3:53 PM 53.1 °F - 46.0 °F 77% 30.08 in 10.0 mi SSW 8.1 mph - N/A   Clear
4:53 PM 52.0 °F - 45.0 °F 77% 30.07 in 10.0 mi SSW 9.2 mph - N/A   Clear
5:53 PM 48.9 °F - 44.1 °F 83% 30.05 in 10.0 mi South 6.9 mph - N/A   Clear
6:21 PM 48.2 °F - 44.6 °F 87% 30.04 in 10.0 mi SW 8.1 mph - N/A   Partly Cloudy
6:34 PM 46.4 °F 41.9 °F 44.6 °F 93% 30.04 in 10.0 mi SSW 9.2 mph - N/A   Mostly Cloudy
6:53 PM 46.0 °F 43.1 °F 44.1 °F 93% 30.04 in 10.0 mi Variable 5.8 mph - N/A   Overcast
7:41 PM 44.6 °F 40.7 °F 42.8 °F 93% 30.03 in 10.0 mi SW 6.9 mph - N/A   Overcast
7:53 PM 45.0 °F 41.8 °F 43.0 °F 93% 30.03 in 10.0 mi SSW 5.8 mph - N/A   Overcast
8:48 PM 44.6 °F 42.2 °F 42.8 °F 93% 30.03 in 10.0 mi South 4.6 mph - N/A   Overcast
8:53 PM 44.1 °F 41.5 °F 42.1 °F 93% 30.03 in 10.0 mi South 4.6 mph - N/A   Overcast
9:53 PM 44.1 °F 41.5 °F 42.1 °F 93% 30.04 in 10.0 mi South 4.6 mph - N/A   Overcast
10:53 PM 44.1 °F 42.5 °F 42.1 °F 93% 30.04 in 10.0 mi SSW 3.5 mph - N/A   Overcast
11:53 PM 43.0 °F 40.3 °F 41.0 °F 93% 30.04 in 10.0 mi South 4.6 mph - N/A   Overcast